European Causeway — C6RG7 — position and weather

sailwx.info

Track history (hours):
 
Tides and Currents Weather Stations Pressure Air Temp Water Temp Dewpoint Dewpoint Depression Visibility Wind Speed Wind Dir Waves Ship Positions

European Causeway

Operator: P & O Irish Sea

Last reported at 2019-Oct-18 22:58 UTC. Time now 2019-Oct-18 23:20 UTC.
Position N 54°51' W 005°48'.

Length 145 m; draft 5.5 m.

Type: Passenger vessel. MMSI: 311027000.

Date/timePositionNaut miles runAvg speedWind from/ knotsBaromVisibWave heightAir tempDewpointWater temp
2019-Oct-18 22:58N 54°51' W 005°48'0 0.1
2019-Oct-18 22:17N 54°51' W 005°48'0 0.0
2019-Oct-18 21:59N 54°51' W 005°48'0 0.0
2019-Oct-18 21:29N 54°51' W 005°48'0 0.0
2019-Oct-18 20:59N 54°51' W 005°48'710.4
2019-Oct-18 20:20N 54°54' W 005°38'1418.2
2019-Oct-18 19:35N 55°00' W 005°16'2 0.8
2019-Oct-18 16:53N 55°01' W 005°13'1318.7
2019-Oct-18 16:12N 54°55' W 005°33'418.2
2019-Oct-18 15:59N 54°54' W 005°39'611.9
2019-Oct-18 15:30N 54°51' W 005°48'0 0.0
2019-Oct-18 14:32N 54°51' W 005°48'0 0.1
2019-Oct-18 14:29N 54°51' W 005°48'1516.2
2019-Oct-18 13:34N 54°58' W 005°25'520.2
2019-Oct-18 13:18N 55°00' W 005°16'2 0.6
2019-Oct-18 10:48N 55°01' W 005°14'1316.4
2019-Oct-18 10:00N 54°54' W 005°34'816.8
2019-Oct-18 09:30N 54°51' W 005°48'0 0.2
2019-Oct-18 08:51N 54°51' W 005°48'0 0.0
2019-Oct-18 08:26N 54°51' W 005°48'712.6
2019-Oct-18 07:54N 54°54' W 005°38'1315.5
2019-Oct-18 07:03N 55°00' W 005°17'115.5
2019-Oct-18 07:00N 55°01' W 005°16'1 0.3
2019-Oct-18 04:13N 55°00' W 005°15'1318.3
2019-Oct-18 03:32N 54°55' W 005°35'117.9
2019-Oct-18 03:30N 54°55' W 005°36'816.1
2019-Oct-18 03:00N 54°51' W 005°48'0 0.0
2019-Oct-18 00:52N 54°51' W 005°48'712.3
2019-Oct-18 00:20N 54°54' W 005°38'15 3.6
2019-Oct-17 20:10N 54°60' W 005°14'1418.5
2019-Oct-17 19:25N 54°54' W 005°36'716.9
2019-Oct-17 18:59N 54°51' W 005°48'0 0.1
2019-Oct-17 17:49N 54°51' W 005°48'0 0.0
2019-Oct-17 17:30N 54°51' W 005°48'1517.5
2019-Oct-17 16:39N 54°58' W 005°25'6 2.2
2019-Oct-17 13:48N 55°00' W 005°15'1321.8
2019-Oct-17 13:12N 54°54' W 005°36'819.2
2019-Oct-17 12:48N 54°51' W 005°48'0 0.6
2019-Oct-17 12:31N 54°51' W 005°48'0 0.0
2019-Oct-17 12:00N 54°51' W 005°48'0 0.3
2019-Oct-17 11:31N 54°51' W 005°48'2016.6
2019-Oct-17 10:18N 55°00' W 005°17'2 0.8
2019-Oct-17 07:46N 55°00' W 005°13'1518.1
2019-Oct-17 06:58N 54°54' W 005°36'716.0
2019-Oct-17 06:30N 54°51' W 005°48'0 0.1
2019-Oct-17 05:26N 54°51' W 005°48'0 0.0
2019-Oct-17 05:00N 54°51' W 005°48'1516.1
2019-Oct-17 04:04N 54°58' W 005°25'119.4
2019-Oct-17 04:00N 54°58' W 005°23'5 1.3
2019-Oct-17 00:10N 55°01' W 005°16'1118.2
2019-Oct-16 23:33N 54°55' W 005°33'418.6
2019-Oct-16 23:21N 54°54' W 005°39'616.5
2019-Oct-16 23:00N 54°51' W 005°48'0 0.3
2019-Oct-16 22:28N 54°51' W 005°48'0 0.0
2019-Oct-16 21:58N 54°51' W 005°48'22 4.1
2019-Oct-16 16:38N 55°00' W 005°13'722.5
2019-Oct-16 16:20N 54°57' W 005°24'821.8
2019-Oct-16 15:58N 54°54' W 005°37'715.7
2019-Oct-16 15:30N 54°51' W 005°48'0 0.1
2019-Oct-16 14:55N 54°51' W 005°48'0 0.0
2019-Oct-16 14:28N 54°51' W 005°48'1514.5
2019-Oct-16 13:26N 54°58' W 005°25'7 2.8
2019-Oct-16 10:52N 55°00' W 005°13'1422.2
2019-Oct-16 10:13N 54°54' W 005°36'720.3
2019-Oct-16 09:51N 54°51' W 005°48'0 0.3
2019-Oct-16 09:27N 54°51' W 005°48'0 0.0
2019-Oct-16 08:57N 54°51' W 005°48'0 0.0
2019-Oct-16 08:30N 54°51' W 005°48'813.3
2019-Oct-16 07:53N 54°55' W 005°35'1217.1
2019-Oct-16 07:10N 55°00' W 005°16'2 0.7
2019-Oct-16 04:15N 55°01' W 005°13'620.2
2019-Oct-16 03:56N 54°58' W 005°23'819.1
2019-Oct-16 03:30N 54°55' W 005°36'816.0
2019-Oct-16 03:00N 54°51' W 005°48'0 0.2
2019-Oct-16 02:22N 54°51' W 005°48'0 0.0
2019-Oct-16 01:52N 54°51' W 005°48'0 0.0
2019-Oct-16 01:28N 54°51' W 005°48'0 0.0
2019-Oct-16 00:58N 54°51' W 005°48'1513.4
2019-Oct-15 23:52N 54°58' W 005°25'7 1.8
2019-Oct-15 20:08N 55°00' W 005°14'517.3
2019-Oct-15 19:50N 54°58' W 005°23'618.0
2019-Oct-15 19:29N 54°55' W 005°33'1016.8
2019-Oct-15 18:55N 54°51' W 005°48'0 0.1
2019-Oct-15 17:49N 54°51' W 005°48'0 0.0
2019-Oct-15 17:29N 54°51' W 005°48'1515.9
2019-Oct-15 16:33N 54°58' W 005°25'117.9
2019-Oct-15 16:29N 54°58' W 005°23'6 2.2
2019-Oct-15 13:49N 55°00' W 005°13'1420.3
2019-Oct-15 13:07N 54°55' W 005°36'817.3
2019-Oct-15 12:40N 54°51' W 005°48'0 0.8
2019-Oct-15 12:29N 54°51' W 005°48'0 0.0
2019-Oct-15 11:54N 54°51' W 005°48'0 0.0
2019-Oct-15 11:30N 54°51' W 005°48'2016.2
2019-Oct-15 10:15N 55°00' W 005°16'3 1.4
2019-Oct-15 07:48N 55°01' W 005°11'717.3
2019-Oct-15 07:22N 54°57' W 005°22'718.1
2019-Oct-15 06:59N 54°55' W 005°33'916.7
2019-Oct-15 06:26N 54°51' W 005°48'0 0.2
2019-Oct-15 05:47N 54°51' W 005°48'0 0.0
2019-Oct-15 05:14N 54°51' W 005°48'4 5.9
2019-Oct-15 04:29N 54°53' W 005°41'1018.2
2019-Oct-15 03:55N 54°58' W 005°26'7 1.9
2019-Oct-15 00:16N 55°00' W 005°14'518.1
2019-Oct-15 00:00N 54°58' W 005°22'1017.6
2019-Oct-14 23:27N 54°54' W 005°38'714.9
2019-Oct-14 23:00N 54°51' W 005°48'0 0.1
2019-Oct-14 22:14N 54°51' W 005°48'0 0.0
2019-Oct-14 21:47N 54°51' W 005°48'0 0.0
2019-Oct-14 21:20N 54°51' W 005°48'0 0.0
2019-Oct-14 21:00N 54°51' W 005°48'2015.1
2019-Oct-14 19:39N 55°00' W 005°17'2 0.9
2019-Oct-14 16:56N 55°01' W 005°13'1217.3
2019-Oct-14 16:15N 54°56' W 005°31'517.0
2019-Oct-14 15:56N 54°54' W 005°40'512.2
2019-Oct-14 15:31N 54°51' W 005°48'0 0.0
2019-Oct-14 14:59N 54°51' W 005°48'0 0.0
2019-Oct-14 14:29N 54°51' W 005°48'1512.7
2019-Oct-14 13:19N 54°58' W 005°25'618.1
2019-Oct-14 13:00N 55°00' W 005°16'2 0.8
2019-Oct-14 10:49N 55°00' W 005°13'617.6
2019-Oct-14 10:28N 54°57' W 005°23'1017.7
2019-Oct-14 09:53N 54°53' W 005°39'614.8
2019-Oct-14 09:30N 54°51' W 005°48'0 0.1
2019-Oct-14 08:34N 54°51' W 005°48'0 0.0
2019-Oct-14 08:28N 54°51' W 005°48'3 7.5
2019-Oct-14 08:00N 54°53' W 005°43'1718.3
2019-Oct-14 07:05N 55°00' W 005°16'119.0
2019-Oct-14 07:00N 55°01' W 005°14'1 0.5
2019-Oct-14 04:18N 55°01' W 005°12'618.4
2019-Oct-14 03:57N 54°58' W 005°22'818.1
2019-Oct-14 03:30N 54°55' W 005°35'816.5
2019-Oct-14 03:00N 54°51' W 005°48'0 0.3
2019-Oct-14 02:26N 54°51' W 005°48'0 0.0
2019-Oct-14 01:56N 54°51' W 005°48'0 0.0
2019-Oct-14 01:29N 54°51' W 005°48'0 0.0
2019-Oct-14 00:59N 54°51' W 005°48'710.2
2019-Oct-14 00:19N 54°54' W 005°38'818.6
2019-Oct-13 23:53N 54°58' W 005°25'718.0
2019-Oct-13 23:30N 55°01' W 005°14'1 0.2
2019-Oct-13 20:17N 55°00' W 005°13'718.5
2019-Oct-13 19:55N 54°57' W 005°24'1019.4
2019-Oct-13 19:25N 54°54' W 005°39'613.1
2019-Oct-13 19:00N 54°51' W 005°48'0 0.0
2019-Oct-13 18:18N 54°51' W 005°48'0 0.0
2019-Oct-13 17:54N 54°51' W 005°48'0 0.0
2019-Oct-13 17:28N 54°51' W 005°48'711.1
2019-Oct-13 16:51N 54°54' W 005°38'1418.7
2019-Oct-13 16:07N 54°60' W 005°16'1 0.5
2019-Oct-13 13:42N 55°00' W 005°14'618.9
2019-Oct-13 13:22N 54°57' W 005°24'718.1
2019-Oct-13 12:58N 54°54' W 005°36'816.0
2019-Oct-13 12:29N 54°51' W 005°48'0 0.3
2019-Oct-13 11:59N 54°51' W 005°48'0 0.0
2019-Oct-13 11:14N 54°51' W 005°48'0 0.0
2019-Oct-13 10:59N 54°51' W 005°48'0 0.0
2019-Oct-13 10:29N 54°51' W 005°48'0 0.0
2019-Oct-13 09:56N 54°51' W 005°48'0 0.0
2019-Oct-13 09:29N 54°51' W 005°48'0 0.0
2019-Oct-13 08:59N 54°51' W 005°48'0 0.0
2019-Oct-13 08:29N 54°51' W 005°48'811.9
2019-Oct-13 07:50N 54°55' W 005°36'1218.3
2019-Oct-13 07:09N 55°00' W 005°17'6 0.5
2019-Oct-12 20:02N 54°56' W 005°24'721.2
2019-Oct-12 19:43N 54°54' W 005°35'817.6
2019-Oct-12 19:15N 54°51' W 005°48'0 0.3
2019-Oct-12 18:50N 54°51' W 005°48'0 0.0
2019-Oct-12 18:20N 54°51' W 005°48'0 0.0
2019-Oct-12 17:53N 54°51' W 005°48'0 0.0
2019-Oct-12 17:24N 54°51' W 005°48'1514.4
2019-Oct-12 16:22N 54°58' W 005°25'7 2.7
2019-Oct-12 13:41N 55°00' W 005°13'621.7
2019-Oct-12 13:26N 54°58' W 005°22'1120.5
2019-Oct-12 12:54N 54°54' W 005°39'614.4
2019-Oct-12 12:30N 54°51' W 005°48'0 0.1
2019-Oct-12 11:53N 54°51' W 005°48'0 0.0
2019-Oct-12 11:30N 54°51' W 005°48'2015.6
2019-Oct-12 10:13N 55°00' W 005°17'2 0.9
2019-Oct-12 07:43N 55°00' W 005°13'717.8
2019-Oct-12 07:20N 54°57' W 005°23'918.8
2019-Oct-12 06:52N 54°54' W 005°38'616.8
2019-Oct-12 06:29N 54°51' W 005°48'0 0.2
2019-Oct-12 05:42N 54°51' W 005°48'0 0.0
2019-Oct-12 05:12N 54°51' W 005°48'0 0.0
2019-Oct-12 05:00N 54°51' W 005°48'713.0
2019-Oct-12 04:29N 54°54' W 005°38'1417.8
2019-Oct-12 03:43N 55°00' W 005°16'1 0.3
2019-Oct-12 00:03N 55°00' W 005°15'119.1
2019-Oct-12 00:00N 54°60' W 005°16'1318.4
2019-Oct-11 23:18N 54°54' W 005°37'716.6
2019-Oct-11 22:52N 54°51' W 005°48'0 0.3
2019-Oct-11 22:19N 54°51' W 005°48'0 0.0
2019-Oct-11 21:49N 54°51' W 005°48'0 0.0
2019-Oct-11 21:04N 54°51' W 005°48'0 0.0
2019-Oct-11 21:00N 54°51' W 005°48'2014.4
2019-Oct-11 19:36N 55°00' W 005°17'2 0.6
2019-Oct-11 16:50N 54°60' W 005°14'2120.7
2019-Oct-11 15:49N 54°51' W 005°48'0 0.4
2019-Oct-11 15:30N 54°51' W 005°48'0 0.0
2019-Oct-11 14:37N 54°51' W 005°48'0 0.0
2019-Oct-11 14:30N 54°51' W 005°48'611.6
2019-Oct-11 13:57N 54°54' W 005°38'15 4.6
2019-Oct-11 10:41N 54°60' W 005°14'1420.6
2019-Oct-11 10:00N 54°54' W 005°36'710.3
2019-Oct-11 09:17N 54°51' W 005°48'0 0.0
2019-Oct-11 08:50N 54°51' W 005°48'0 0.1
2019-Oct-11 08:30N 54°51' W 005°48'812.7
2019-Oct-11 07:53N 54°55' W 005°36'1216.7
2019-Oct-11 07:09N 55°00' W 005°17'1 0.4
2019-Oct-11 04:07N 55°00' W 005°15'517.9
2019-Oct-11 03:51N 54°58' W 005°22'818.2
2019-Oct-11 03:24N 54°54' W 005°35'817.0
2019-Oct-11 02:55N 54°51' W 005°48'0 0.2
2019-Oct-11 02:16N 54°51' W 005°48'0 0.0
2019-Oct-11 01:49N 54°51' W 005°48'0 0.0
2019-Oct-11 01:22N 54°51' W 005°48'0 0.0
2019-Oct-11 00:58N 54°51' W 005°48'610.9
2019-Oct-11 00:27N 54°54' W 005°40'917.0
2019-Oct-10 23:54N 54°58' W 005°25'6 1.6
2019-Oct-10 20:15N 55°01' W 005°16'617.7
2019-Oct-10 19:55N 54°59' W 005°26'817.8
2019-Oct-10 19:27N 54°54' W 005°38'715.0
2019-Oct-10 19:00N 54°51' W 005°48'0 0.1
2019-Oct-10 18:25N 54°51' W 005°48'0 0.0
2019-Oct-10 17:55N 54°51' W 005°48'0 0.0
2019-Oct-10 17:30N 54°51' W 005°48'712.5
2019-Oct-10 16:57N 54°54' W 005°38'1419.3
2019-Oct-10 16:13N 55°00' W 005°15'1 0.3
2019-Oct-10 13:46N 55°00' W 005°14'621.1
2019-Oct-10 13:29N 54°57' W 005°24'1518.9
2019-Oct-10 12:41N 54°51' W 005°48'0 1.2
2019-Oct-10 12:30N 54°51' W 005°48'0 0.0
2019-Oct-10 11:58N 54°51' W 005°48'0 0.0
2019-Oct-10 11:30N 54°51' W 005°48'1115.8
2019-Oct-10 10:49N 54°56' W 005°31'1021.2
2019-Oct-10 10:21N 55°00' W 005°16'1 0.4
2019-Oct-10 07:39N 54°60' W 005°14'1216.8
2019-Oct-10 06:55N 54°55' W 005°33'919.4
2019-Oct-10 06:27N 54°51' W 005°48'0 0.2
2019-Oct-10 05:42N 54°51' W 005°48'0 0.0
2019-Oct-10 05:21N 54°51' W 005°48'0 0.0
2019-Oct-10 05:00N 54°51' W 005°48'712.0
2019-Oct-10 04:26N 54°55' W 005°38'919.3
2019-Oct-10 03:59N 54°59' W 005°25'7 2.0
2019-Oct-10 00:14N 55°00' W 005°12'618.5
2019-Oct-09 23:54N 54°58' W 005°22'818.0
2019-Oct-09 23:28N 54°55' W 005°35'816.6
2019-Oct-09 22:58N 54°51' W 005°48'0 0.3
2019-Oct-09 22:28N 54°51' W 005°48'0 0.0
2019-Oct-09 21:49N 54°51' W 005°48'0 0.0
2019-Oct-09 21:16N 54°51' W 005°48'0 0.0
2019-Oct-09 21:00N 54°51' W 005°48'2014.7
2019-Oct-09 19:39N 55°00' W 005°17'2 0.6
2019-Oct-09 16:42N 55°00' W 005°14'519.9
2019-Oct-09 16:26N 54°57' W 005°22'1020.9
2019-Oct-09 15:57N 54°54' W 005°38'613.6
2019-Oct-09 15:30N 54°51' W 005°48'0 0.0
2019-Oct-09 14:24N 54°51' W 005°48'713.5
2019-Oct-09 13:54N 54°54' W 005°38'817.1
2019-Oct-09 13:25N 54°58' W 005°25'7 2.5
2019-Oct-09 10:45N 54°60' W 005°14'518.3
2019-Oct-09 10:28N 54°58' W 005°22'918.0
2019-Oct-09 09:58N 54°54' W 005°36'715.9
2019-Oct-09 09:31N 54°51' W 005°48'0 0.2
2019-Oct-09 08:55N 54°51' W 005°48'0 0.0
2019-Oct-09 08:27N 54°51' W 005°48'612.0
2019-Oct-09 07:55N 54°54' W 005°38'1419.8
2019-Oct-09 07:13N 55°00' W 005°16'2 0.7
2019-Oct-09 04:14N 55°01' W 005°14'716.8
2019-Oct-09 03:49N 54°57' W 005°24'618.4
2019-Oct-09 03:30N 54°55' W 005°33'917.1
2019-Oct-09 02:57N 54°51' W 005°48'0 0.2
2019-Oct-09 02:08N 54°51' W 005°48'0 0.0
2019-Oct-09 01:50N 54°51' W 005°48'0 0.0
2019-Oct-09 01:20N 54°51' W 005°48'0 0.0
2019-Oct-09 00:57N 54°51' W 005°48'610.3
2019-Oct-09 00:24N 54°54' W 005°40'917.1
2019-Oct-08 23:52N 54°58' W 005°26'616.4
2019-Oct-08 23:29N 55°00' W 005°16'  
Track history (hours):
 
Tides and Currents Weather Stations Pressure Air Temp Water Temp Dewpoint Dewpoint Depression Visibility Wind Speed Wind Dir Waves Ship Positions

European Causeway

Operator: P & O Irish Sea

Last reported at 2019-Oct-18 22:58 UTC. Time now 2019-Oct-18 23:20 UTC.
Position N 54°51' W 005°48'.

Length 145 m; draft 5.5 m.

Type: Passenger vessel. MMSI: 311027000.

Date/timePositionNaut miles runAvg speedWind from/ knotsBaromVisibWave heightAir tempDewpointWater temp
2019-Oct-18 22:58N 54°51' W 005°48'0 0.1
2019-Oct-18 22:17N 54°51' W 005°48'0 0.0
2019-Oct-18 21:59N 54°51' W 005°48'0 0.0
2019-Oct-18 21:29N 54°51' W 005°48'0 0.0
2019-Oct-18 20:59N 54°51' W 005°48'710.4
2019-Oct-18 20:20N 54°54' W 005°38'1418.2
2019-Oct-18 19:35N 55°00' W 005°16'2 0.8
2019-Oct-18 16:53N 55°01' W 005°13'1318.7
2019-Oct-18 16:12N 54°55' W 005°33'418.2
2019-Oct-18 15:59N 54°54' W 005°39'611.9
2019-Oct-18 15:30N 54°51' W 005°48'0 0.0
2019-Oct-18 14:32N 54°51' W 005°48'0 0.1
2019-Oct-18 14:29N 54°51' W 005°48'1516.2
2019-Oct-18 13:34N 54°58' W 005°25'520.2
2019-Oct-18 13:18N 55°00' W 005°16'2 0.6
2019-Oct-18 10:48N 55°01' W 005°14'1316.4
2019-Oct-18 10:00N 54°54' W 005°34'816.8
2019-Oct-18 09:30N 54°51' W 005°48'0 0.2
2019-Oct-18 08:51N 54°51' W 005°48'0 0.0
2019-Oct-18 08:26N 54°51' W 005°48'712.6
2019-Oct-18 07:54N 54°54' W 005°38'1315.5
2019-Oct-18 07:03N 55°00' W 005°17'115.5
2019-Oct-18 07:00N 55°01' W 005°16'1 0.3
2019-Oct-18 04:13N 55°00' W 005°15'1318.3
2019-Oct-18 03:32N 54°55' W 005°35'117.9
2019-Oct-18 03:30N 54°55' W 005°36'816.1
2019-Oct-18 03:00N 54°51' W 005°48'0 0.0
2019-Oct-18 00:52N 54°51' W 005°48'712.3
2019-Oct-18 00:20N 54°54' W 005°38'15 3.6
2019-Oct-17 20:10N 54°60' W 005°14'1418.5
2019-Oct-17 19:25N 54°54' W 005°36'716.9
2019-Oct-17 18:59N 54°51' W 005°48'0 0.1
2019-Oct-17 17:49N 54°51' W 005°48'0 0.0
2019-Oct-17 17:30N 54°51' W 005°48'1517.5
2019-Oct-17 16:39N 54°58' W 005°25'6 2.2
2019-Oct-17 13:48N 55°00' W 005°15'1321.8
2019-Oct-17 13:12N 54°54' W 005°36'819.2
2019-Oct-17 12:48N 54°51' W 005°48'0 0.6
2019-Oct-17 12:31N 54°51' W 005°48'0 0.0
2019-Oct-17 12:00N 54°51' W 005°48'0 0.3
2019-Oct-17 11:31N 54°51' W 005°48'2016.6
2019-Oct-17 10:18N 55°00' W 005°17'2 0.8
2019-Oct-17 07:46N 55°00' W 005°13'1518.1
2019-Oct-17 06:58N 54°54' W 005°36'716.0
2019-Oct-17 06:30N 54°51' W 005°48'0 0.1
2019-Oct-17 05:26N 54°51' W 005°48'0 0.0
2019-Oct-17 05:00N 54°51' W 005°48'1516.1
2019-Oct-17 04:04N 54°58' W 005°25'119.4
2019-Oct-17 04:00N 54°58' W 005°23'5 1.3
2019-Oct-17 00:10N 55°01' W 005°16'1118.2
2019-Oct-16 23:33N 54°55' W 005°33'418.6
2019-Oct-16 23:21N 54°54' W 005°39'616.5
2019-Oct-16 23:00N 54°51' W 005°48'0 0.3
2019-Oct-16 22:28N 54°51' W 005°48'0 0.0
2019-Oct-16 21:58N 54°51' W 005°48'22 4.1
2019-Oct-16 16:38N 55°00' W 005°13'722.5
2019-Oct-16 16:20N 54°57' W 005°24'821.8
2019-Oct-16 15:58N 54°54' W 005°37'715.7
2019-Oct-16 15:30N 54°51' W 005°48'0 0.1
2019-Oct-16 14:55N 54°51' W 005°48'0 0.0
2019-Oct-16 14:28N 54°51' W 005°48'1514.5
2019-Oct-16 13:26N 54°58' W 005°25'7 2.8
2019-Oct-16 10:52N 55°00' W 005°13'1422.2
2019-Oct-16 10:13N 54°54' W 005°36'720.3
2019-Oct-16 09:51N 54°51' W 005°48'0 0.3
2019-Oct-16 09:27N 54°51' W 005°48'0 0.0
2019-Oct-16 08:57N 54°51' W 005°48'0 0.0
2019-Oct-16 08:30N 54°51' W 005°48'813.3
2019-Oct-16 07:53N 54°55' W 005°35'1217.1
2019-Oct-16 07:10N 55°00' W 005°16'2 0.7
2019-Oct-16 04:15N 55°01' W 005°13'620.2
2019-Oct-16 03:56N 54°58' W 005°23'819.1
2019-Oct-16 03:30N 54°55' W 005°36'816.0
2019-Oct-16 03:00N 54°51' W 005°48'0 0.2
2019-Oct-16 02:22N 54°51' W 005°48'0 0.0
2019-Oct-16 01:52N 54°51' W 005°48'0 0.0
2019-Oct-16 01:28N 54°51' W 005°48'0 0.0
2019-Oct-16 00:58N 54°51' W 005°48'1513.4
2019-Oct-15 23:52N 54°58' W 005°25'7 1.8
2019-Oct-15 20:08N 55°00' W 005°14'517.3
2019-Oct-15 19:50N 54°58' W 005°23'618.0
2019-Oct-15 19:29N 54°55' W 005°33'1016.8
2019-Oct-15 18:55N 54°51' W 005°48'0 0.1
2019-Oct-15 17:49N 54°51' W 005°48'0 0.0
2019-Oct-15 17:29N 54°51' W 005°48'1515.9
2019-Oct-15 16:33N 54°58' W 005°25'117.9
2019-Oct-15 16:29N 54°58' W 005°23'6 2.2
2019-Oct-15 13:49N 55°00' W 005°13'1420.3
2019-Oct-15 13:07N 54°55' W 005°36'817.3
2019-Oct-15 12:40N 54°51' W 005°48'0 0.8
2019-Oct-15 12:29N 54°51' W 005°48'0 0.0
2019-Oct-15 11:54N 54°51' W 005°48'0 0.0
2019-Oct-15 11:30N 54°51' W 005°48'2016.2
2019-Oct-15 10:15N 55°00' W 005°16'3 1.4
2019-Oct-15 07:48N 55°01' W 005°11'717.3
2019-Oct-15 07:22N 54°57' W 005°22'718.1
2019-Oct-15 06:59N 54°55' W 005°33'916.7
2019-Oct-15 06:26N 54°51' W 005°48'0 0.2
2019-Oct-15 05:47N 54°51' W 005°48'0 0.0
2019-Oct-15 05:14N 54°51' W 005°48'4 5.9
2019-Oct-15 04:29N 54°53' W 005°41'1018.2
2019-Oct-15 03:55N 54°58' W 005°26'7 1.9
2019-Oct-15 00:16N 55°00' W 005°14'518.1
2019-Oct-15 00:00N 54°58' W 005°22'1017.6
2019-Oct-14 23:27N 54°54' W 005°38'714.9
2019-Oct-14 23:00N 54°51' W 005°48'0 0.1
2019-Oct-14 22:14N 54°51' W 005°48'0 0.0
2019-Oct-14 21:47N 54°51' W 005°48'0 0.0
2019-Oct-14 21:20N 54°51' W 005°48'0 0.0
2019-Oct-14 21:00N 54°51' W 005°48'2015.1
2019-Oct-14 19:39N 55°00' W 005°17'2 0.9
2019-Oct-14 16:56N 55°01' W 005°13'1217.3
2019-Oct-14 16:15N 54°56' W 005°31'517.0
2019-Oct-14 15:56N 54°54' W 005°40'512.2
2019-Oct-14 15:31N 54°51' W 005°48'0 0.0
2019-Oct-14 14:59N 54°51' W 005°48'0 0.0
2019-Oct-14 14:29N 54°51' W 005°48'1512.7
2019-Oct-14 13:19N 54°58' W 005°25'618.1
2019-Oct-14 13:00N 55°00' W 005°16'2 0.8
2019-Oct-14 10:49N 55°00' W 005°13'617.6
2019-Oct-14 10:28N 54°57' W 005°23'1017.7
2019-Oct-14 09:53N 54°53' W 005°39'614.8
2019-Oct-14 09:30N 54°51' W 005°48'0 0.1
2019-Oct-14 08:34N 54°51' W 005°48'0 0.0
2019-Oct-14 08:28N 54°51' W 005°48'3 7.5
2019-Oct-14 08:00N 54°53' W 005°43'1718.3
2019-Oct-14 07:05N 55°00' W 005°16'119.0
2019-Oct-14 07:00N 55°01' W 005°14'1 0.5
2019-Oct-14 04:18N 55°01' W 005°12'618.4
2019-Oct-14 03:57N 54°58' W 005°22'818.1
2019-Oct-14 03:30N 54°55' W 005°35'816.5
2019-Oct-14 03:00N 54°51' W 005°48'0 0.3
2019-Oct-14 02:26N 54°51' W 005°48'0 0.0
2019-Oct-14 01:56N 54°51' W 005°48'0 0.0
2019-Oct-14 01:29N 54°51' W 005°48'0 0.0
2019-Oct-14 00:59N 54°51' W 005°48'710.2
2019-Oct-14 00:19N 54°54' W 005°38'818.6
2019-Oct-13 23:53N 54°58' W 005°25'718.0
2019-Oct-13 23:30N 55°01' W 005°14'1 0.2
2019-Oct-13 20:17N 55°00' W 005°13'718.5
2019-Oct-13 19:55N 54°57' W 005°24'1019.4
2019-Oct-13 19:25N 54°54' W 005°39'613.1
2019-Oct-13 19:00N 54°51' W 005°48'0 0.0
2019-Oct-13 18:18N 54°51' W 005°48'0 0.0
2019-Oct-13 17:54N 54°51' W 005°48'0 0.0
2019-Oct-13 17:28N 54°51' W 005°48'711.1
2019-Oct-13 16:51N 54°54' W 005°38'1418.7
2019-Oct-13 16:07N 54°60' W 005°16'1 0.5
2019-Oct-13 13:42N 55°00' W 005°14'618.9
2019-Oct-13 13:22N 54°57' W 005°24'718.1
2019-Oct-13 12:58N 54°54' W 005°36'816.0
2019-Oct-13 12:29N 54°51' W 005°48'0 0.3
2019-Oct-13 11:59N 54°51' W 005°48'0 0.0
2019-Oct-13 11:14N 54°51' W 005°48'0 0.0
2019-Oct-13 10:59N 54°51' W 005°48'0 0.0
2019-Oct-13 10:29N 54°51' W 005°48'0 0.0
2019-Oct-13 09:56N 54°51' W 005°48'0 0.0
2019-Oct-13 09:29N 54°51' W 005°48'0 0.0
2019-Oct-13 08:59N 54°51' W 005°48'0 0.0
2019-Oct-13 08:29N 54°51' W 005°48'811.9
2019-Oct-13 07:50N 54°55' W 005°36'1218.3
2019-Oct-13 07:09N 55°00' W 005°17'6 0.5
2019-Oct-12 20:02N 54°56' W 005°24'721.2
2019-Oct-12 19:43N 54°54' W 005°35'817.6
2019-Oct-12 19:15N 54°51' W 005°48'0 0.3
2019-Oct-12 18:50N 54°51' W 005°48'0 0.0
2019-Oct-12 18:20N 54°51' W 005°48'0 0.0
2019-Oct-12 17:53N 54°51' W 005°48'0 0.0
2019-Oct-12 17:24N 54°51' W 005°48'1514.4
2019-Oct-12 16:22N 54°58' W 005°25'7 2.7
2019-Oct-12 13:41N 55°00' W 005°13'621.7
2019-Oct-12 13:26N 54°58' W 005°22'1120.5
2019-Oct-12 12:54N 54°54' W 005°39'614.4
2019-Oct-12 12:30N 54°51' W 005°48'0 0.1
2019-Oct-12 11:53N 54°51' W 005°48'0 0.0
2019-Oct-12 11:30N 54°51' W 005°48'2015.6
2019-Oct-12 10:13N 55°00' W 005°17'2 0.9
2019-Oct-12 07:43N 55°00' W 005°13'717.8
2019-Oct-12 07:20N 54°57' W 005°23'918.8
2019-Oct-12 06:52N 54°54' W 005°38'616.8
2019-Oct-12 06:29N 54°51' W 005°48'0 0.2
2019-Oct-12 05:42N 54°51' W 005°48'0 0.0
2019-Oct-12 05:12N 54°51' W 005°48'0 0.0
2019-Oct-12 05:00N 54°51' W 005°48'713.0
2019-Oct-12 04:29N 54°54' W 005°38'1417.8
2019-Oct-12 03:43N 55°00' W 005°16'1 0.3
2019-Oct-12 00:03N 55°00' W 005°15'119.1
2019-Oct-12 00:00N 54°60' W 005°16'1318.4
2019-Oct-11 23:18N 54°54' W 005°37'716.6
2019-Oct-11 22:52N 54°51' W 005°48'0 0.3
2019-Oct-11 22:19N 54°51' W 005°48'0 0.0
2019-Oct-11 21:49N 54°51' W 005°48'0 0.0
2019-Oct-11 21:04N 54°51' W 005°48'0 0.0
2019-Oct-11 21:00N 54°51' W 005°48'2014.4
2019-Oct-11 19:36N 55°00' W 005°17'2 0.6
2019-Oct-11 16:50N 54°60' W 005°14'2120.7
2019-Oct-11 15:49N 54°51' W 005°48'0 0.4
2019-Oct-11 15:30N 54°51' W 005°48'0 0.0
2019-Oct-11 14:37N 54°51' W 005°48'0 0.0
2019-Oct-11 14:30N 54°51' W 005°48'611.6
2019-Oct-11 13:57N 54°54' W 005°38'15 4.6
2019-Oct-11 10:41N 54°60' W 005°14'1420.6
2019-Oct-11 10:00N 54°54' W 005°36'710.3
2019-Oct-11 09:17N 54°51' W 005°48'0 0.0
2019-Oct-11 08:50N 54°51' W 005°48'0 0.1
2019-Oct-11 08:30N 54°51' W 005°48'812.7
2019-Oct-11 07:53N 54°55' W 005°36'1216.7
2019-Oct-11 07:09N 55°00' W 005°17'1 0.4
2019-Oct-11 04:07N 55°00' W 005°15'517.9
2019-Oct-11 03:51N 54°58' W 005°22'818.2
2019-Oct-11 03:24N 54°54' W 005°35'817.0
2019-Oct-11 02:55N 54°51' W 005°48'0 0.2
2019-Oct-11 02:16N 54°51' W 005°48'0 0.0
2019-Oct-11 01:49N 54°51' W 005°48'0 0.0
2019-Oct-11 01:22N 54°51' W 005°48'0 0.0
2019-Oct-11 00:58N 54°51' W 005°48'610.9
2019-Oct-11 00:27N 54°54' W 005°40'917.0
2019-Oct-10 23:54N 54°58' W 005°25'6 1.6
2019-Oct-10 20:15N 55°01' W 005°16'617.7
2019-Oct-10 19:55N 54°59' W 005°26'817.8
2019-Oct-10 19:27N 54°54' W 005°38'715.0
2019-Oct-10 19:00N 54°51' W 005°48'0 0.1
2019-Oct-10 18:25N 54°51' W 005°48'0 0.0
2019-Oct-10 17:55N 54°51' W 005°48'0 0.0
2019-Oct-10 17:30N 54°51' W 005°48'712.5
2019-Oct-10 16:57N 54°54' W 005°38'1419.3
2019-Oct-10 16:13N 55°00' W 005°15'1 0.3
2019-Oct-10 13:46N 55°00' W 005°14'621.1
2019-Oct-10 13:29N 54°57' W 005°24'1518.9
2019-Oct-10 12:41N 54°51' W 005°48'0 1.2
2019-Oct-10 12:30N 54°51' W 005°48'0 0.0
2019-Oct-10 11:58N 54°51' W 005°48'0 0.0
2019-Oct-10 11:30N 54°51' W 005°48'1115.8
2019-Oct-10 10:49N 54°56' W 005°31'1021.2
2019-Oct-10 10:21N 55°00' W 005°16'1 0.4
2019-Oct-10 07:39N 54°60' W 005°14'1216.8
2019-Oct-10 06:55N 54°55' W 005°33'919.4
2019-Oct-10 06:27N 54°51' W 005°48'0 0.2
2019-Oct-10 05:42N 54°51' W 005°48'0 0.0
2019-Oct-10 05:21N 54°51' W 005°48'0 0.0
2019-Oct-10 05:00N 54°51' W 005°48'712.0
2019-Oct-10 04:26N 54°55' W 005°38'919.3
2019-Oct-10 03:59N 54°59' W 005°25'7 2.0
2019-Oct-10 00:14N 55°00' W 005°12'618.5
2019-Oct-09 23:54N 54°58' W 005°22'818.0
2019-Oct-09 23:28N 54°55' W 005°35'816.6
2019-Oct-09 22:58N 54°51' W 005°48'0 0.3
2019-Oct-09 22:28N 54°51' W 005°48'0 0.0
2019-Oct-09 21:49N 54°51' W 005°48'0 0.0
2019-Oct-09 21:16N 54°51' W 005°48'0 0.0
2019-Oct-09 21:00N 54°51' W 005°48'2014.7
2019-Oct-09 19:39N 55°00' W 005°17'2 0.6
2019-Oct-09 16:42N 55°00' W 005°14'519.9
2019-Oct-09 16:26N 54°57' W 005°22'1020.9
2019-Oct-09 15:57N 54°54' W 005°38'613.6
2019-Oct-09 15:30N 54°51' W 005°48'0 0.0
2019-Oct-09 14:24N 54°51' W 005°48'713.5
2019-Oct-09 13:54N 54°54' W 005°38'817.1
2019-Oct-09 13:25N 54°58' W 005°25'7 2.5
2019-Oct-09 10:45N 54°60' W 005°14'518.3
2019-Oct-09 10:28N 54°58' W 005°22'918.0
2019-Oct-09 09:58N 54°54' W 005°36'715.9
2019-Oct-09 09:31N 54°51' W 005°48'0 0.2
2019-Oct-09 08:55N 54°51' W 005°48'0 0.0
2019-Oct-09 08:27N 54°51' W 005°48'612.0
2019-Oct-09 07:55N 54°54' W 005°38'1419.8
2019-Oct-09 07:13N 55°00' W 005°16'2 0.7
2019-Oct-09 04:14N 55°01' W 005°14'716.8
2019-Oct-09 03:49N 54°57' W 005°24'618.4
2019-Oct-09 03:30N 54°55' W 005°33'917.1
2019-Oct-09 02:57N 54°51' W 005°48'0 0.2
2019-Oct-09 02:08N 54°51' W 005°48'0 0.0
2019-Oct-09 01:50N 54°51' W 005°48'0 0.0
2019-Oct-09 01:20N 54°51' W 005°48'0 0.0
2019-Oct-09 00:57N 54°51' W 005°48'610.3
2019-Oct-09 00:24N 54°54' W 005°40'917.1
2019-Oct-08 23:52N 54°58' W 005°26'616.4
2019-Oct-08 23:29N 55°00' W 005°16'  

Dump ship's entire track history